{"data":{"norad_id":68829,"epoch":"2026-09-20T00:34:02.624736Z","epoch_age_seconds":97241,"freshness":"FRESH","line1":"1 68829U 26090D   26263.02364149  .00033299  22119-5  13251-3 0  9999","line2":"2 68829  96.6364 178.0414 0013807  41.6812 318.5510 15.86787051 23696","mean_motion":15.86787051,"eccentricity":0.0013807,"inclination_deg":96.6364,"raan_deg":178.0414,"arg_perigee_deg":41.6812,"mean_anomaly_deg":318.551,"bstar":0.00013251,"rev_number":2369,"period_min":90.749417137763,"perigee_km":302.06145648357,"apogee_km":320.53366107418,"semimajor_km":6689.4345587789,"source":"CELESTRAK","updated_at":"2026-09-20T09:00:24.494994Z"}}